Time,TemperatureF,DewpointF,PressureIn,WindDirection,WindDirectionDegrees,WindSpeedMPH,WindSpeedGustMPH,Humidity,HourlyPrecipIn,Conditions,Clouds,dailyrainin,SoftwareType,DateUTC
2013-04-12 00:00:00,64.8,42.9,29.66,SSW,203,13.0,13.0,45,0.00,,,0.00,Wunderground v.1.15,2013-04-12 07:00:00,
2013-04-12 00:10:00,64.6,42.8,29.66,SSW,199,13.0,13.0,45,0.00,,,0.00,Wunderground v.1.15,2013-04-12 07:10:00,
2013-04-12 00:20:00,64.2,43.0,29.66,SSW,196,13.0,13.0,46,0.00,,,0.00,Wunderground v.1.15,2013-04-12 07:20:00,
2013-04-12 00:30:00,64.0,42.8,29.66,SSW,200,11.0,14.0,46,0.00,,,0.00,Wunderground v.1.15,2013-04-12 07:30:00,
2013-04-12 00:40:00,63.8,42.6,29.66,SSW,196,12.0,13.0,46,0.00,,,0.00,Wunderground v.1.15,2013-04-12 07:40:00,
2013-04-12 00:50:00,63.9,42.1,29.66,SSW,206,11.0,11.0,45,0.00,,,0.00,Wunderground v.1.15,2013-04-12 07:50:00,
2013-04-12 01:00:00,62.9,42.4,29.66,SSW,207,5.0,5.0,47,0.00,,,0.00,Wunderground v.1.15,2013-04-12 08:00:00,
2013-04-12 01:10:00,62.7,42.2,29.66,SSW,207,5.0,10.0,47,0.00,,,0.00,Wunderground v.1.15,2013-04-12 08:10:00,
2013-04-12 01:20:00,62.2,41.7,29.66,SSW,207,7.0,10.0,47,0.00,,,0.00,Wunderground v.1.15,2013-04-12 08:20:00,
2013-04-12 01:30:00,62.1,41.6,29.66,SSW,207,8.0,8.0,47,0.00,,,0.00,Wunderground v.1.15,2013-04-12 08:30:00,
2013-04-12 01:40:00,61.9,42.0,29.67,SSW,207,8.0,8.0,48,0.00,,,0.00,Wunderground v.1.15,2013-04-12 08:40:00,
2013-04-12 01:50:00,61.3,41.4,29.67,SSW,207,4.0,10.0,48,0.00,,,0.00,Wunderground v.1.15,2013-04-12 08:50:00,
2013-04-12 02:00:00,61.1,41.2,29.67,SSW,207,4.0,10.0,48,0.00,,,0.00,Wunderground v.1.15,2013-04-12 09:00:00,
2013-04-12 02:10:00,61.2,41.3,29.67,SSW,204,6.0,6.0,48,0.00,,,0.00,Wunderground v.1.15,2013-04-12 09:10:00,
2013-04-12 02:20:00,61.6,41.2,29.67,SSW,204,5.0,10.0,47,0.00,,,0.00,Wunderground v.1.15,2013-04-12 09:20:00,
2013-04-12 02:30:00,61.0,40.6,29.66,SSW,206,5.0,5.0,47,0.00,,,0.00,Wunderground v.1.15,2013-04-12 09:30:00,
2013-04-12 02:40:00,60.2,41.0,29.67,SSW,206,1.0,10.0,49,0.00,,,0.00,Wunderground v.1.15,2013-04-12 09:40:00,
2013-04-12 02:50:00,59.8,41.1,29.67,SSW,206,1.0,10.0,50,0.00,,,0.00,Wunderground v.1.15,2013-04-12 09:50:00,
2013-04-12 03:00:00,59.5,40.8,29.66,SSW,206,3.0,10.0,50,0.00,,,0.00,Wunderground v.1.15,2013-04-12 10:00:00,
2013-04-12 03:10:00,60.0,40.8,29.67,SSW,206,4.0,4.0,49,0.00,,,0.00,Wunderground v.1.15,2013-04-12 10:10:00,
2013-04-12 03:20:00,60.5,41.2,29.66,SSW,206,3.0,3.0,49,0.00,,,0.00,Wunderground v.1.15,2013-04-12 10:20:00,
2013-04-12 03:30:00,60.6,40.8,29.67,SSW,206,0.0,10.0,48,0.00,,,0.00,Wunderground v.1.15,2013-04-12 10:30:00,
2013-04-12 03:40:00,59.8,40.6,29.67,SSW,206,0.0,10.0,49,0.00,,,0.00,Wunderground v.1.15,2013-04-12 10:40:00,
2013-04-12 03:50:00,59.0,40.4,29.66,SSW,206,1.0,1.0,50,0.00,,,0.00,Wunderground v.1.15,2013-04-12 10:50:00,
2013-04-12 04:00:00,57.9,39.9,29.66,SSW,206,3.0,10.0,51,0.00,,,0.00,Wunderground v.1.15,2013-04-12 11:00:00,
2013-04-12 04:10:00,59.1,39.9,29.66,SSW,206,6.0,6.0,49,0.00,,,0.00,Wunderground v.1.15,2013-04-12 11:10:00,
2013-04-12 04:20:00,59.0,39.9,29.66,SSW,206,6.0,10.0,49,0.00,,,0.00,Wunderground v.1.15,2013-04-12 11:20:00,
2013-04-12 04:30:00,58.9,39.8,29.66,SSW,206,4.0,4.0,49,0.00,,,0.00,Wunderground v.1.15,2013-04-12 11:30:00,
2013-04-12 04:40:00,57.9,39.4,29.66,SSW,206,0.0,10.0,50,0.00,,,0.00,Wunderground v.1.15,2013-04-12 11:40:00,
2013-04-12 04:50:00,57.4,39.4,29.66,SSW,206,0.0,10.0,51,0.00,,,0.00,Wunderground v.1.15,2013-04-12 11:50:00,
2013-04-12 05:00:00,57.1,39.1,29.67,SSW,206,0.0,10.0,51,0.00,,,0.00,Wunderground v.1.15,2013-04-12 12:00:00,
2013-04-12 05:10:00,56.1,39.7,29.67,SSW,206,0.0,10.0,54,0.00,,,0.00,Wunderground v.1.15,2013-04-12 12:10:00,
2013-04-12 05:20:00,55.7,39.3,29.67,SSW,206,0.0,10.0,54,0.00,,,0.00,Wunderground v.1.15,2013-04-12 12:20:00,
2013-04-12 05:30:00,55.2,38.8,29.68,SSW,206,0.0,10.0,54,0.00,,,0.00,Wunderground v.1.15,2013-04-12 12:30:00,
2013-04-12 05:40:00,56.5,39.6,29.68,SSW,206,1.0,10.0,53,0.00,,,0.00,Wunderground v.1.15,2013-04-12 12:40:00,
2013-04-12 05:50:00,57.5,40.0,29.69,SSW,206,2.0,2.0,52,0.00,,,0.00,Wunderground v.1.15,2013-04-12 12:50:00,
2013-04-12 06:00:00,54.1,37.3,29.69,SW,234,5.0,10.0,53,0.00,,,0.00,Wunderground v.1.15,2013-04-12 13:00:00,
2013-04-12 06:10:00,52.8,38.0,29.70,SW,233,5.0,5.0,57,0.00,,,0.00,Wunderground v.1.15,2013-04-12 13:10:00,
2013-04-12 06:20:00,53.0,38.2,29.70,SW,233,2.0,2.0,57,0.00,,,0.00,Wunderground v.1.15,2013-04-12 13:20:00,
2013-04-12 06:30:00,53.4,38.5,29.70,SW,234,1.0,1.0,57,0.00,,,0.00,Wunderground v.1.15,2013-04-12 13:30:00,
2013-04-12 06:40:00,53.8,38.9,29.72,SW,234,0.0,10.0,57,0.00,,,0.00,Wunderground v.1.15,2013-04-12 13:40:00,
2013-04-12 06:50:00,55.0,39.1,29.72,SW,234,0.0,10.0,55,0.00,,,0.00,Wunderground v.1.15,2013-04-12 13:50:00,
2013-04-12 07:00:00,55.8,39.4,29.72,SW,234,0.0,10.0,54,0.00,,,0.00,Wunderground v.1.15,2013-04-12 14:00:00,
2013-04-12 07:10:00,55.8,38.9,29.72,SW,233,0.0,10.0,53,0.00,,,0.00,Wunderground v.1.15,2013-04-12 14:10:00,
2013-04-12 07:20:00,56.1,39.2,29.72,SW,233,2.0,2.0,53,0.00,,,0.00,Wunderground v.1.15,2013-04-12 14:20:00,
2013-04-12 07:30:00,57.2,39.7,29.72,SW,234,0.0,10.0,52,0.00,,,0.00,Wunderground v.1.15,2013-04-12 14:30:00,
2013-04-12 07:40:00,57.5,39.5,29.73,SW,233,2.0,10.0,51,0.00,,,0.00,Wunderground v.1.15,2013-04-12 14:40:00,
2013-04-12 07:50:00,58.1,40.1,29.73,SW,233,2.0,2.0,51,0.00,,,0.00,Wunderground v.1.15,2013-04-12 14:50:00,
2013-04-12 08:00:00,58.9,40.3,29.73,SW,234,0.0,10.0,50,0.00,,,0.00,Wunderground v.1.15,2013-04-12 15:00:00,
2013-04-12 08:10:00,60.0,40.8,29.73,SW,234,0.0,10.0,49,0.00,,,0.00,Wunderground v.1.15,2013-04-12 15:10:00,
2013-04-12 08:20:00,60.4,40.6,29.74,SW,233,0.0,10.0,48,0.00,,,0.00,Wunderground v.1.15,2013-04-12 15:20:00,
2013-04-12 08:30:00,60.9,41.1,29.74,SW,234,0.0,10.0,48,0.00,,,0.00,Wunderground v.1.15,2013-04-12 15:30:00,
2013-04-12 08:40:00,61.3,40.9,29.74,SW,234,1.0,1.0,47,0.00,,,0.00,Wunderground v.1.15,2013-04-12 15:40:00,
2013-04-12 08:50:00,62.6,41.5,29.74,SW,234,0.0,10.0,46,0.00,,,0.00,Wunderground v.1.15,2013-04-12 15:50:00,
2013-04-12 09:00:00,63.9,42.1,29.75,SW,234,0.0,10.0,45,0.00,,,0.00,Wunderground v.1.15,2013-04-12 16:00:00,
2013-04-12 09:10:00,65.0,41.9,29.74,SW,234,0.0,10.0,43,0.00,,,0.00,Wunderground v.1.15,2013-04-12 16:10:00,
2013-04-12 09:20:00,66.2,42.4,29.74,SW,234,0.0,10.0,42,0.00,,,0.00,Wunderground v.1.15,2013-04-12 16:20:00,
2013-04-12 09:30:00,68.0,42.1,29.75,SW,233,0.0,10.0,39,0.00,,,0.00,Wunderground v.1.15,2013-04-12 16:30:00,
2013-04-12 09:40:00,69.9,42.4,29.75,SW,233,0.0,10.0,37,0.00,,,0.00,Wunderground v.1.15,2013-04-12 16:40:00,
2013-04-12 09:50:00,70.3,41.3,29.74,SW,233,0.0,10.0,35,0.00,,,0.00,Wunderground v.1.15,2013-04-12 16:50:00,
2013-04-12 10:00:00,71.3,40.7,29.75,SW,234,0.0,10.0,33,0.00,,,0.00,Wunderground v.1.15,2013-04-12 17:00:00,
2013-04-12 10:10:00,71.6,40.2,29.75,SW,234,1.0,10.0,32,0.00,,,0.00,Wunderground v.1.15,2013-04-12 17:10:00,
2013-04-12 10:20:00,71.4,39.2,29.75,SW,234,1.0,10.0,31,0.00,,,0.00,Wunderground v.1.15,2013-04-12 17:20:00,
2013-04-12 10:30:00,73.1,39.8,29.74,SW,233,1.0,1.0,30,0.00,,,0.00,Wunderground v.1.15,2013-04-12 17:30:00,
2013-04-12 10:40:00,73.4,39.2,29.74,SW,234,1.0,1.0,29,0.00,,,0.00,Wunderground v.1.15,2013-04-12 17:40:00,
2013-04-12 10:50:00,74.4,37.3,29.75,SW,234,2.0,10.0,26,0.00,,,0.00,Wunderground v.1.15,2013-04-12 17:50:00,
2013-04-12 11:00:00,74.6,37.4,29.75,WSW,254,4.0,4.0,26,0.00,,,0.00,Wunderground v.1.15,2013-04-12 18:00:00,
2013-04-12 11:10:00,75.8,35.3,29.74,WSW,254,1.0,1.0,23,0.00,,,0.00,Wunderground v.1.15,2013-04-12 18:10:00,
2013-04-12 11:20:00,77.1,36.4,29.74,NW,312,3.0,10.0,23,0.00,,,0.00,Wunderground v.1.15,2013-04-12 18:20:00,
2013-04-12 12:30:00,80.2,35.5,29.70,NW,326,4.0,10.0,20,0.00,,,0.00,Wunderground v.1.15,2013-04-12 19:30:00,
2013-04-12 12:40:00,79.9,35.2,29.70,NNW,344,5.0,5.0,20,0.00,,,0.00,Wunderground v.1.15,2013-04-12 19:40:00,
2013-04-12 12:50:00,80.4,35.6,29.69,NW,324,4.0,10.0,20,0.00,,,0.00,Wunderground v.1.15,2013-04-12 19:50:00,
2013-04-12 13:00:00,80.6,35.8,29.69,West,265,7.0,7.0,20,0.00,,,0.00,Wunderground v.1.15,2013-04-12 20:00:00,
2013-04-12 13:10:00,81.0,36.1,29.69,West,263,6.0,6.0,20,0.00,,,0.00,Wunderground v.1.15,2013-04-12 20:10:00,
2013-04-12 13:20:00,81.2,36.3,29.68,West,274,4.0,4.0,20,0.00,,,0.00,Wunderground v.1.15,2013-04-12 20:20:00,
2013-04-12 13:30:00,81.2,36.3,29.68,WSW,249,6.0,14.0,20,0.00,,,0.00,Wunderground v.1.15,2013-04-12 20:30:00,
2013-04-12 13:40:00,81.3,35.1,29.68,WSW,240,8.0,8.0,19,0.00,,,0.00,Wunderground v.1.15,2013-04-12 20:40:00,
2013-04-12 13:50:00,82.3,35.9,29.67,SSW,204,3.0,13.0,19,0.00,,,0.00,Wunderground v.1.15,2013-04-12 20:50:00,
2013-04-12 14:00:00,81.8,35.5,29.67,South,188,11.0,11.0,19,0.00,,,0.00,Wunderground v.1.15,2013-04-12 21:00:00,
2013-04-12 14:10:00,81.8,35.5,29.67,SSE,148,9.0,9.0,19,0.00,,,0.00,Wunderground v.1.15,2013-04-12 21:10:00,
2013-04-12 14:20:00,81.9,35.6,29.66,SE,146,4.0,4.0,19,0.00,,,0.00,Wunderground v.1.15,2013-04-12 21:20:00,
2013-04-12 14:30:00,83.4,36.8,29.65,SSW,211,4.0,10.0,19,0.00,,,0.00,Wunderground v.1.15,2013-04-12 21:30:00,
2013-04-12 14:40:00,82.9,36.4,29.66,WSW,240,9.0,10.0,19,0.00,,,0.00,Wunderground v.1.15,2013-04-12 21:40:00,
2013-04-12 14:50:00,82.5,36.1,29.65,WSW,242,6.0,6.0,19,0.00,,,0.00,Wunderground v.1.15,2013-04-12 21:50:00,
2013-04-12 15:00:00,83.2,36.6,29.64,WSW,241,3.0,10.0,19,0.00,,,0.00,Wunderground v.1.15,2013-04-12 22:00:00,
2013-04-12 15:10:00,83.7,35.7,29.64,South,180,4.0,14.0,18,0.00,,,0.00,Wunderground v.1.15,2013-04-12 22:10:00,
2013-04-12 15:20:00,83.7,35.7,29.64,South,175,9.0,9.0,18,0.00,,,0.00,Wunderground v.1.15,2013-04-12 22:20:00,
2013-04-12 15:30:00,83.9,37.2,29.63,West,267,12.0,12.0,19,0.00,,,0.00,Wunderground v.1.15,2013-04-12 22:30:00,
2013-04-12 15:40:00,83.2,36.6,29.63,West,265,10.0,10.0,19,0.00,,,0.00,Wunderground v.1.15,2013-04-12 22:40:00,
2013-04-12 15:50:00,83.5,36.9,29.63,WSW,242,10.0,12.0,19,0.00,,,0.00,Wunderground v.1.15,2013-04-12 22:50:00,
2013-04-12 16:00:00,83.3,36.7,29.62,SW,223,10.0,10.0,19,0.00,,,0.00,Wunderground v.1.15,2013-04-12 23:00:00,
2013-04-12 16:10:00,84.2,37.5,29.62,SW,226,6.0,10.0,19,0.00,,,0.00,Wunderground v.1.15,2013-04-12 23:10:00,
2013-04-12 16:20:00,83.8,37.1,29.62,SW,232,11.0,11.0,19,0.00,,,0.00,Wunderground v.1.15,2013-04-12 23:20:00,
2013-04-12 16:30:00,85.1,36.8,29.61,SSW,198,3.0,12.0,18,0.00,,,0.00,Wunderground v.1.15,2013-04-12 23:30:00,
2013-04-12 16:40:00,84.5,36.3,29.60,SSW,196,12.0,12.0,18,0.00,,,0.00,Wunderground v.1.15,2013-04-12 23:40:00,
2013-04-12 16:50:00,84.8,36.6,29.61,South,190,6.0,6.0,18,0.00,,,0.00,Wunderground v.1.15,2013-04-12 23:50:00,
2013-04-12 17:00:00,84.1,36.0,29.61,SSW,213,14.0,14.0,18,0.00,,,0.00,Wunderground v.1.15,2013-04-13 00:00:00,
2013-04-12 17:10:00,84.5,34.9,29.60,SW,236,8.0,14.0,17,0.00,,,0.00,Wunderground v.1.15,2013-04-13 00:10:00,
2013-04-12 17:20:00,84.2,36.1,29.61,SSW,194,13.0,13.0,18,0.00,,,0.00,Wunderground v.1.15,2013-04-13 00:20:00,
2013-04-12 17:30:00,84.1,37.4,29.60,WSW,252,10.0,18.0,19,0.00,,,0.00,Wunderground v.1.15,2013-04-13 00:30:00,
2013-04-12 17:40:00,83.9,37.2,29.60,West,265,18.0,18.0,19,0.00,,,0.00,Wunderground v.1.15,2013-04-13 00:40:00,
2013-04-12 17:50:00,84.1,38.7,29.60,West,280,14.0,16.0,20,0.00,,,0.00,Wunderground v.1.15,2013-04-13 00:50:00,
2013-04-12 18:00:00,83.9,38.5,29.61,West,269,15.0,15.0,20,0.00,,,0.00,Wunderground v.1.15,2013-04-13 01:00:00,
2013-04-12 18:10:00,83.5,38.2,29.61,West,281,15.0,16.0,20,0.00,,,0.00,Wunderground v.1.15,2013-04-13 01:10:00,
2013-04-12 18:20:00,83.2,37.9,29.61,West,271,17.0,17.0,20,0.00,,,0.00,Wunderground v.1.15,2013-04-13 01:20:00,
2013-04-12 18:30:00,82.5,38.6,29.61,West,269,17.0,18.0,21,0.00,,,0.00,Wunderground v.1.15,2013-04-13 01:30:00,
2013-04-12 18:40:00,82.1,37.0,29.61,West,267,16.0,16.0,20,0.00,,,0.00,Wunderground v.1.15,2013-04-13 01:40:00,
2013-04-12 18:50:00,81.8,38.0,29.61,West,263,15.0,15.0,21,0.00,,,0.00,Wunderground v.1.15,2013-04-13 01:50:00,
2013-04-12 19:00:00,80.6,39.4,29.61,West,268,18.0,18.0,23,0.00,,,0.00,Wunderground v.1.15,2013-04-13 02:00:00,
2013-04-12 19:10:00,79.7,41.8,29.62,West,265,15.0,15.0,26,0.00,,,0.00,Wunderground v.1.15,2013-04-13 02:10:00,
2013-04-12 19:20:00,78.6,43.7,29.62,West,260,14.0,14.0,29,0.00,,,0.00,Wunderground v.1.15,2013-04-13 02:20:00,
2013-04-12 19:30:00,77.8,43.9,29.63,West,270,13.0,13.0,30,0.00,,,0.00,Wunderground v.1.15,2013-04-13 02:30:00,
2013-04-12 19:40:00,77.2,44.2,29.63,West,277,11.0,11.0,31,0.00,,,0.00,Wunderground v.1.15,2013-04-13 02:40:00,
2013-04-12 19:50:00,76.3,45.1,29.64,West,260,10.0,11.0,33,0.00,,,0.00,Wunderground v.1.15,2013-04-13 02:50:00,
2013-04-12 20:00:00,75.3,45.0,29.64,WSW,247,12.0,12.0,34,0.00,,,0.00,Wunderground v.1.15,2013-04-13 03:00:00,
2013-04-12 20:10:00,74.4,45.0,29.65,SW,215,12.0,14.0,35,0.00,,,0.00,Wunderground v.1.15,2013-04-13 03:10:00,
2013-04-12 20:20:00,73.1,45.3,29.65,South,171,13.0,13.0,37,0.00,,,0.00,Wunderground v.1.15,2013-04-13 03:20:00,
2013-04-12 20:30:00,72.4,46.0,29.66,South,171,13.0,15.0,39,0.00,,,0.00,Wunderground v.1.15,2013-04-13 03:30:00,
2013-04-12 20:40:00,72.0,45.7,29.67,South,173,14.0,15.0,39,0.00,,,0.00,Wunderground v.1.15,2013-04-13 03:40:00,
2013-04-12 20:50:00,71.5,45.9,29.67,South,185,18.0,20.0,40,0.00,,,0.00,Wunderground v.1.15,2013-04-13 03:50:00,
2013-04-12 21:00:00,71.0,46.1,29.68,South,180,18.0,18.0,41,0.00,,,0.00,Wunderground v.1.15,2013-04-13 04:00:00,
2013-04-12 21:10:00,70.5,45.7,29.68,South,177,15.0,17.0,41,0.00,,,0.00,Wunderground v.1.15,2013-04-13 04:10:00,
2013-04-12 21:20:00,70.4,45.6,29.68,South,179,16.0,16.0,41,0.00,,,0.00,Wunderground v.1.15,2013-04-13 04:20:00,
2013-04-12 21:30:00,70.4,45.6,29.68,South,191,17.0,17.0,41,0.00,,,0.00,Wunderground v.1.15,2013-04-13 04:30:00,
2013-04-12 21:40:00,70.0,45.2,29.68,SSW,202,15.0,16.0,41,0.00,,,0.00,Wunderground v.1.15,2013-04-13 04:40:00,
2013-04-12 21:50:00,69.4,45.3,29.68,SSW,208,17.0,17.0,42,0.00,,,0.00,Wunderground v.1.15,2013-04-13 04:50:00,
2013-04-12 22:00:00,69.2,45.1,29.68,SSW,209,16.0,16.0,42,0.00,,,0.00,Wunderground v.1.15,2013-04-13 05:00:00,
2013-04-12 22:10:00,69.2,44.5,29.69,SW,234,15.0,18.0,41,0.00,,,0.00,Wunderground v.1.15,2013-04-13 05:10:00,
2013-04-12 22:20:00,69.0,44.3,29.70,SW,227,16.0,16.0,41,0.00,,,0.00,Wunderground v.1.15,2013-04-13 05:20:00,
2013-04-12 22:30:00,68.7,43.4,29.69,SW,225,14.0,14.0,40,0.00,,,0.00,Wunderground v.1.15,2013-04-13 05:30:00,
2013-04-12 22:40:00,68.4,42.5,29.69,SW,222,12.0,14.0,39,0.00,,,0.00,Wunderground v.1.15,2013-04-13 05:40:00,
2013-04-12 22:50:00,68.4,42.5,29.69,SW,227,13.0,13.0,39,0.00,,,0.00,Wunderground v.1.15,2013-04-13 05:50:00,
2013-04-12 23:00:00,68.3,41.7,29.70,SW,221,15.0,15.0,38,0.00,,,0.00,Wunderground v.1.15,2013-04-13 06:00:00,
2013-04-12 23:10:00,67.8,41.9,29.69,SW,230,14.0,17.0,39,0.00,,,0.00,Wunderground v.1.15,2013-04-13 06:10:00,
2013-04-12 23:20:00,68.1,41.5,29.70,WSW,240,17.0,17.0,38,0.00,,,0.00,Wunderground v.1.15,2013-04-13 06:20:00,
2013-04-12 23:30:00,67.9,41.3,29.70,SSW,213,15.0,15.0,38,0.00,,,0.00,Wunderground v.1.15,2013-04-13 06:30:00,
2013-04-12 23:40:00,67.5,42.3,29.70,SW,221,13.0,17.0,40,0.00,,,0.00,Wunderground v.1.15,2013-04-13 06:40:00,